Time,TemperatureF,DewpointF,PressureIn,WindDirection,WindDirectionDegrees,WindSpeedMPH,WindSpeedGustMPH,Humidity,HourlyPrecipIn,Conditions,Clouds,dailyrainin,SolarRadiationWatts/m^2,SoftwareType,DateUTC
2013-02-14 00:02:00,50.0,49.0,-100.00,East,87,2.0,11.0,96,0.00,,,0.00,0.000000,,2013-02-14 10:02:00,
2013-02-14 00:11:00,50.0,49.0,-100.00,East,87,2.0,11.0,96,0.00,,,0.00,0.000000,,2013-02-14 10:11:00,
2013-02-14 00:21:00,50.0,49.0,-100.00,East,87,2.0,11.0,96,0.00,,,0.00,0.000000,,2013-02-14 10:21:00,
2013-02-14 00:42:00,50.0,49.0,-100.00,East,86,2.0,11.0,95,0.00,,,-99.99,0.000000,,2013-02-14 10:42:00,
2013-02-14 00:52:00,50.0,49.0,-100.00,East,86,2.0,11.0,95,0.00,,,-99.99,0.000000,,2013-02-14 10:52:00,
2013-02-14 01:01:00,50.0,49.0,-100.00,East,86,2.0,11.0,95,0.00,,,-99.99,0.000000,,2013-02-14 11:01:00,
2013-02-14 01:11:00,50.0,49.0,-100.00,East,86,2.0,11.0,95,0.00,,,-99.99,0.000000,,2013-02-14 11:11:00,
2013-02-14 01:21:00,50.0,49.0,-100.00,East,86,2.0,11.0,95,0.00,,,-99.99,0.000000,,2013-02-14 11:21:00,
2013-02-14 01:42:00,49.0,48.0,-100.00,East,86,3.0,9.0,95,0.00,,,0.00,0.000000,,2013-02-14 11:42:00,
2013-02-14 01:52:00,49.0,48.0,-100.00,East,86,3.0,9.0,95,0.00,,,0.00,0.000000,,2013-02-14 11:52:00,
2013-02-14 02:01:00,49.0,48.0,-100.00,East,86,3.0,9.0,95,0.00,,,0.00,0.000000,,2013-02-14 12:01:00,
2013-02-14 02:11:00,49.0,48.0,-100.00,East,86,3.0,9.0,95,0.00,,,0.00,0.000000,,2013-02-14 12:11:00,
2013-02-14 02:21:00,49.0,48.0,-100.00,East,86,3.0,9.0,95,0.00,,,0.00,0.000000,,2013-02-14 12:21:00,
2013-02-14 02:42:00,51.0,50.0,-100.00,East,89,2.0,8.0,96,0.00,,,0.00,0.000000,,2013-02-14 12:42:00,
2013-02-14 02:53:00,51.0,50.0,-100.00,East,89,2.0,8.0,96,0.00,,,0.00,0.000000,,2013-02-14 12:53:00,
2013-02-14 03:01:00,51.0,50.0,-100.00,East,89,2.0,8.0,96,0.00,,,0.00,0.000000,,2013-02-14 13:01:00,
2013-02-14 03:11:00,51.0,50.0,-100.00,East,89,2.0,8.0,96,0.00,,,0.00,0.000000,,2013-02-14 13:11:00,
2013-02-14 03:21:00,51.0,50.0,-100.00,East,89,2.0,8.0,96,0.00,,,0.00,0.000000,,2013-02-14 13:21:00,
2013-02-14 03:42:00,50.0,49.0,-100.00,East,89,2.0,9.0,96,0.00,,,0.00,0.000000,,2013-02-14 13:42:00,
2013-02-14 03:51:00,50.0,49.0,-100.00,East,89,2.0,9.0,96,0.00,,,0.00,0.000000,,2013-02-14 13:51:00,
2013-02-14 04:01:00,50.0,49.0,-100.00,East,89,2.0,9.0,96,0.00,,,0.00,0.000000,,2013-02-14 14:01:00,
2013-02-14 04:11:00,50.0,49.0,-100.00,East,89,2.0,9.0,96,0.00,,,0.00,0.000000,,2013-02-14 14:11:00,
2013-02-14 04:21:00,50.0,49.0,-100.00,East,89,2.0,9.0,96,0.00,,,0.00,0.000000,,2013-02-14 14:21:00,
2013-02-14 04:42:00,50.0,49.0,-100.00,East,90,3.0,10.0,95,0.00,,,0.00,0.000000,,2013-02-14 14:42:00,
2013-02-14 04:52:00,50.0,49.0,-100.00,East,90,3.0,10.0,95,0.00,,,0.00,0.000000,,2013-02-14 14:52:00,
2013-02-14 05:01:00,50.0,49.0,-100.00,East,90,3.0,10.0,95,0.00,,,0.00,0.000000,,2013-02-14 15:01:00,
2013-02-14 05:11:00,50.0,49.0,-100.00,East,90,3.0,10.0,95,0.00,,,0.00,0.000000,,2013-02-14 15:11:00,
2013-02-14 05:21:00,50.0,49.0,-100.00,East,90,3.0,10.0,95,0.00,,,0.00,0.000000,,2013-02-14 15:21:00,
2013-02-14 05:42:00,50.0,49.0,-100.00,East,83,3.0,10.0,96,0.00,,,0.00,0.000000,,2013-02-14 15:42:00,
2013-02-14 05:52:00,50.0,49.0,-100.00,East,83,3.0,10.0,96,0.00,,,0.00,0.000000,,2013-02-14 15:52:00,
2013-02-14 06:01:00,50.0,49.0,-100.00,East,83,3.0,10.0,96,0.00,,,0.00,0.000000,,2013-02-14 16:01:00,
2013-02-14 06:11:00,50.0,49.0,-100.00,East,83,3.0,10.0,96,0.00,,,0.00,0.000000,,2013-02-14 16:11:00,
2013-02-14 06:21:00,50.0,49.0,-100.00,East,83,3.0,10.0,96,0.00,,,0.00,0.000000,,2013-02-14 16:21:00,
2013-02-14 06:42:00,51.0,50.0,-100.00,East,83,3.0,13.0,97,0.00,,,0.00,0.000000,,2013-02-14 16:42:00,
2013-02-14 06:52:00,51.0,50.0,-100.00,East,83,3.0,13.0,97,0.00,,,0.00,0.000000,,2013-02-14 16:52:00,
2013-02-14 07:01:00,51.0,50.0,-100.00,East,83,3.0,13.0,97,0.00,,,0.00,0.000000,,2013-02-14 17:01:00,
2013-02-14 07:11:00,51.0,50.0,-100.00,East,83,3.0,13.0,97,0.00,,,0.00,0.000000,,2013-02-14 17:11:00,
2013-02-14 07:21:00,51.0,50.0,-100.00,East,83,3.0,13.0,97,0.00,,,0.00,0.000000,,2013-02-14 17:21:00,
2013-02-14 07:22:00,50.0,49.0,-100.00,East,83,3.0,12.0,97,0.00,,,0.00,0.000000,,2013-02-14 17:22:00,
2013-02-14 07:42:00,50.0,49.0,-100.00,East,83,3.0,12.0,97,0.00,,,0.00,0.000000,,2013-02-14 17:42:00,
2013-02-14 07:52:00,50.0,49.0,-100.00,East,83,3.0,12.0,97,0.00,,,0.00,0.000000,,2013-02-14 17:52:00,
2013-02-14 08:01:00,50.0,49.0,-100.00,East,83,3.0,12.0,97,0.00,,,0.00,0.000000,,2013-02-14 18:01:00,
2013-02-14 08:11:00,50.0,49.0,-100.00,East,83,3.0,12.0,97,0.00,,,0.00,0.000000,,2013-02-14 18:11:00,
2013-02-14 08:42:00,51.0,50.0,-100.00,East,86,3.0,11.0,96,0.00,,,0.00,19.000000,,2013-02-14 18:42:00,
2013-02-14 08:52:00,51.0,50.0,-100.00,East,86,3.0,11.0,96,0.00,,,0.00,19.000000,,2013-02-14 18:52:00,
2013-02-14 09:01:00,51.0,50.0,-100.00,East,86,3.0,11.0,96,0.00,,,0.00,19.000000,,2013-02-14 19:01:00,
2013-02-14 09:11:00,51.0,50.0,-100.00,East,86,3.0,11.0,96,0.00,,,0.00,19.000000,,2013-02-14 19:11:00,
2013-02-14 09:21:00,51.0,50.0,-100.00,East,86,3.0,11.0,96,0.00,,,0.00,19.000000,,2013-02-14 19:21:00,
2013-02-14 09:42:00,52.0,51.0,-100.00,East,80,3.0,11.0,95,0.00,,,0.00,98.000000,,2013-02-14 19:42:00,
2013-02-14 09:52:00,52.0,51.0,-100.00,East,80,3.0,11.0,95,0.00,,,0.00,98.000000,,2013-02-14 19:52:00,
2013-02-14 10:01:00,52.0,51.0,-100.00,East,80,3.0,11.0,95,0.00,,,0.00,98.000000,,2013-02-14 20:01:00,
2013-02-14 10:11:00,52.0,51.0,-100.00,East,80,3.0,11.0,95,0.00,,,0.00,98.000000,,2013-02-14 20:11:00,
2013-02-14 10:21:00,52.0,51.0,-100.00,East,80,3.0,11.0,95,0.00,,,0.00,98.000000,,2013-02-14 20:21:00,
2013-02-14 10:42:00,53.0,50.0,-100.00,East,87,3.0,12.0,90,0.00,,,0.00,181.000000,,2013-02-14 20:42:00,
2013-02-14 10:52:00,53.0,50.0,-100.00,East,87,3.0,12.0,90,0.00,,,0.00,181.000000,,2013-02-14 20:52:00,
2013-02-14 11:02:00,53.0,50.0,-100.00,East,87,3.0,12.0,90,0.00,,,0.00,181.000000,,2013-02-14 21:02:00,
2013-02-14 11:11:00,53.0,50.0,-100.00,East,87,3.0,12.0,90,0.00,,,0.00,181.000000,,2013-02-14 21:11:00,
2013-02-14 11:21:00,53.0,50.0,-100.00,East,87,3.0,12.0,90,0.00,,,0.00,181.000000,,2013-02-14 21:21:00,
2013-02-14 11:42:00,55.0,52.0,-100.00,East,83,2.0,10.0,89,0.00,,,0.00,307.000000,,2013-02-14 21:42:00,
2013-02-14 11:52:00,55.0,52.0,-100.00,East,83,2.0,10.0,89,0.00,,,0.00,307.000000,,2013-02-14 21:52:00,
2013-02-14 12:02:00,55.0,52.0,-100.00,East,83,2.0,10.0,89,0.00,,,0.00,307.000000,,2013-02-14 22:02:00,
2013-02-14 12:11:00,55.0,52.0,-100.00,East,83,2.0,10.0,89,0.00,,,0.00,307.000000,,2013-02-14 22:11:00,
2013-02-14 12:21:00,55.0,52.0,-100.00,East,83,2.0,10.0,89,0.00,,,0.00,307.000000,,2013-02-14 22:21:00,
2013-02-14 12:42:00,56.0,53.0,-100.00,East,83,2.0,8.0,90,0.00,,,0.00,318.000000,,2013-02-14 22:42:00,
2013-02-14 12:52:00,56.0,53.0,-100.00,East,83,2.0,8.0,90,0.00,,,0.00,318.000000,,2013-02-14 22:52:00,
2013-02-14 13:01:00,56.0,53.0,-100.00,East,83,2.0,8.0,90,0.00,,,0.00,318.000000,,2013-02-14 23:01:00,
2013-02-14 13:11:00,56.0,53.0,-100.00,East,83,2.0,8.0,90,0.00,,,0.00,318.000000,,2013-02-14 23:11:00,
2013-02-14 13:21:00,56.0,53.0,-100.00,East,83,2.0,8.0,90,0.00,,,0.00,318.000000,,2013-02-14 23:21:00,
2013-02-14 13:42:00,57.0,55.0,-100.00,East,81,2.0,12.0,93,0.00,,,0.00,419.000000,,2013-02-14 23:42:00,
2013-02-14 13:52:00,57.0,55.0,-100.00,East,81,2.0,12.0,93,0.00,,,0.00,419.000000,,2013-02-14 23:52:00,
2013-02-14 14:01:00,57.0,55.0,-100.00,East,81,2.0,12.0,93,0.00,,,0.00,419.000000,,2013-02-15 00:01:00,
2013-02-14 14:11:00,57.0,55.0,-100.00,East,81,2.0,12.0,93,0.00,,,0.00,419.000000,,2013-02-15 00:11:00,
2013-02-14 14:21:00,57.0,55.0,-100.00,East,81,2.0,12.0,93,0.00,,,0.00,419.000000,,2013-02-15 00:21:00,
2013-02-14 14:42:00,58.0,54.0,-100.00,ENE,76,2.0,10.0,86,0.00,,,0.00,469.000000,,2013-02-15 00:42:00,
2013-02-14 14:52:00,58.0,54.0,-100.00,ENE,76,2.0,10.0,86,0.00,,,0.00,469.000000,,2013-02-15 00:52:00,
2013-02-14 15:01:00,58.0,54.0,-100.00,ENE,76,2.0,10.0,86,0.00,,,0.00,469.000000,,2013-02-15 01:01:00,
2013-02-14 15:11:00,58.0,54.0,-100.00,ENE,76,2.0,10.0,86,0.00,,,0.00,469.000000,,2013-02-15 01:11:00,
2013-02-14 15:21:00,58.0,54.0,-100.00,ENE,76,2.0,10.0,86,0.00,,,0.00,469.000000,,2013-02-15 01:21:00,
2013-02-14 15:42:00,59.0,52.0,-100.00,East,79,2.0,7.0,79,0.00,,,0.00,542.000000,,2013-02-15 01:42:00,
2013-02-14 15:52:00,59.0,52.0,-100.00,East,79,2.0,7.0,79,0.00,,,0.00,542.000000,,2013-02-15 01:52:00,
2013-02-14 16:01:00,59.0,52.0,-100.00,East,79,2.0,7.0,79,0.00,,,0.00,542.000000,,2013-02-15 02:01:00,
2013-02-14 16:11:00,59.0,52.0,-100.00,East,79,2.0,7.0,79,0.00,,,0.00,542.000000,,2013-02-15 02:11:00,
2013-02-14 16:21:00,59.0,52.0,-100.00,East,79,2.0,7.0,79,0.00,,,0.00,542.000000,,2013-02-15 02:21:00,
2013-02-14 16:42:00,59.0,55.0,-100.00,East,87,2.0,7.0,87,0.00,,,-99.99,350.000000,,2013-02-15 02:42:00,
2013-02-14 16:52:00,59.0,55.0,-100.00,East,87,2.0,7.0,87,0.00,,,-99.99,350.000000,,2013-02-15 02:52:00,
2013-02-14 17:01:00,59.0,55.0,-100.00,East,87,2.0,7.0,87,0.00,,,-99.99,350.000000,,2013-02-15 03:01:00,
2013-02-14 17:11:00,59.0,55.0,-100.00,East,87,2.0,7.0,87,0.00,,,-99.99,350.000000,,2013-02-15 03:11:00,
2013-02-14 17:21:00,59.0,55.0,-100.00,East,87,2.0,7.0,87,0.00,,,-99.99,350.000000,,2013-02-15 03:21:00,
2013-02-14 17:42:00,55.0,53.0,-100.00,East,89,2.0,11.0,92,0.00,,,0.00,155.000000,,2013-02-15 03:42:00,
2013-02-14 17:52:00,55.0,53.0,-100.00,East,89,2.0,11.0,92,0.00,,,0.00,155.000000,,2013-02-15 03:52:00,
2013-02-14 18:01:00,55.0,53.0,-100.00,East,89,2.0,11.0,92,0.00,,,0.00,155.000000,,2013-02-15 04:01:00,
2013-02-14 18:11:00,55.0,53.0,-100.00,East,89,2.0,11.0,92,0.00,,,0.00,155.000000,,2013-02-15 04:11:00,
2013-02-14 18:21:00,55.0,53.0,-100.00,East,89,2.0,11.0,92,0.00,,,0.00,155.000000,,2013-02-15 04:21:00,
2013-02-14 18:22:00,53.0,52.0,-100.00,East,80,3.0,9.0,95,0.00,,,0.00,60.000000,,2013-02-15 04:22:00,
2013-02-14 18:42:00,53.0,52.0,-100.00,East,80,3.0,9.0,95,0.00,,,0.00,60.000000,,2013-02-15 04:42:00,
2013-02-14 18:52:00,53.0,52.0,-100.00,East,80,3.0,9.0,95,0.00,,,0.00,60.000000,,2013-02-15 04:52:00,
2013-02-14 19:01:00,53.0,52.0,-100.00,East,80,3.0,9.0,95,0.00,,,0.00,60.000000,,2013-02-15 05:01:00,
2013-02-14 19:11:00,53.0,52.0,-100.00,East,80,3.0,9.0,95,0.00,,,0.00,60.000000,,2013-02-15 05:11:00,
2013-02-14 19:42:00,52.0,51.0,-100.00,East,84,3.0,12.0,95,0.00,,,0.00,6.000000,,2013-02-15 05:42:00,
2013-02-14 19:52:00,52.0,51.0,-100.00,East,84,3.0,12.0,95,0.00,,,0.00,6.000000,,2013-02-15 05:52:00,
2013-02-14 20:02:00,52.0,51.0,-100.00,East,84,3.0,12.0,95,0.00,,,0.00,6.000000,,2013-02-15 06:02:00,
2013-02-14 20:11:00,52.0,51.0,-100.00,East,84,3.0,12.0,95,0.00,,,0.00,6.000000,,2013-02-15 06:11:00,
2013-02-14 20:21:00,52.0,51.0,-100.00,East,84,3.0,12.0,95,0.00,,,0.00,6.000000,,2013-02-15 06:21:00,
2013-02-14 20:42:00,52.0,51.0,-100.00,East,87,3.0,16.0,96,0.00,,,0.00,0.000000,,2013-02-15 06:42:00,
2013-02-14 20:52:00,52.0,51.0,-100.00,East,87,3.0,16.0,96,0.00,,,0.00,0.000000,,2013-02-15 06:52:00,
2013-02-14 21:01:00,52.0,51.0,-100.00,East,87,3.0,16.0,96,0.00,,,0.00,0.000000,,2013-02-15 07:01:00,
2013-02-14 21:11:00,52.0,51.0,-100.00,East,87,3.0,16.0,96,0.00,,,0.00,0.000000,,2013-02-15 07:11:00,
2013-02-14 21:21:00,52.0,51.0,-100.00,East,87,3.0,16.0,96,0.00,,,0.00,0.000000,,2013-02-15 07:21:00,
2013-02-14 21:42:00,52.0,51.0,-100.00,East,96,3.0,10.0,96,0.00,,,0.00,0.000000,,2013-02-15 07:42:00,
2013-02-14 21:52:00,52.0,51.0,-100.00,East,96,3.0,10.0,96,0.00,,,0.00,0.000000,,2013-02-15 07:52:00,
2013-02-14 22:01:00,52.0,51.0,-100.00,East,96,3.0,10.0,96,0.00,,,0.00,0.000000,,2013-02-15 08:01:00,
2013-02-14 22:11:00,52.0,51.0,-100.00,East,96,3.0,10.0,96,0.00,,,0.00,0.000000,,2013-02-15 08:11:00,
2013-02-14 22:21:00,52.0,51.0,-100.00,East,96,3.0,10.0,96,0.00,,,0.00,0.000000,,2013-02-15 08:21:00,
2013-02-14 22:42:00,52.0,51.0,-100.00,East,98,3.0,16.0,96,0.00,,,0.00,0.000000,,2013-02-15 08:42:00,
2013-02-14 22:53:00,52.0,51.0,-100.00,East,98,3.0,16.0,96,0.00,,,0.00,0.000000,,2013-02-15 08:53:00,
2013-02-14 23:01:00,52.0,51.0,-100.00,East,98,3.0,16.0,96,0.00,,,0.00,0.000000,,2013-02-15 09:01:00,
2013-02-14 23:12:00,52.0,51.0,-100.00,East,98,3.0,16.0,96,0.00,,,0.00,0.000000,,2013-02-15 09:12:00,
2013-02-14 23:21:00,52.0,51.0,-100.00,East,98,3.0,16.0,96,0.00,,,0.00,0.000000,,2013-02-15 09:21:00,
2013-02-14 23:42:00,52.0,51.0,-100.00,East,87,3.0,15.0,96,0.00,,,0.00,0.000000,,2013-02-15 09:42:00,
2013-02-14 23:52:00,52.0,51.0,-100.00,East,87,3.0,15.0,96,0.00,,,0.00,0.000000,,2013-02-15 09:52:00,